This is the latest recevied weather packets stored in our database for station/object K0FJ-1. If no packets are shown the sender has not sent any weather packets the latest 10 day(s).
| Time | Temp. | Humidity | Pressure | Rain* | Wind** | Luminosity | Snow |
|---|---|---|---|---|---|---|---|
| 1787903703 | 17.78° C | 86% | 1022.9 hPa | 0 mm | - | - | - |
| 1787903403 | 18.33° C | 86% | 1022.7 hPa | 0 mm | - | - | - |
| 1787903103 | 18.33° C | 86% | 1022.9 hPa | 0 mm | - | - | - |
| 1787902803 | 18.33° C | 85% | 1023.1 hPa | 0 mm | - | - | - |
| 1787902503 | 18.33° C | 85% | 1023 hPa | 0 mm | - | - | - |
| 1787902203 | 18.33° C | 84% | 1023.2 hPa | 0 mm | - | - | - |
| 1787901903 | 18.89° C | 84% | 1023.1 hPa | 0 mm | - | - | - |
| 1787901603 | 18.89° C | 83% | 1022.8 hPa | 0 mm | - | - | - |
| 1787901303 | 18.89° C | 83% | 1022.9 hPa | 0 mm | - | - | - |
| 1787901003 | 18.89° C | 82% | 1023.3 hPa | 0 mm | - | - | - |
| 1787900703 | 18.89° C | 81% | 1023.4 hPa | 0 mm | - | - | - |
| 1787900403 | 19.44° C | 80% | 1023.5 hPa | 0 mm | - | - | - |
| 1787900103 | 19.44° C | 77% | 1023.7 hPa | 0 mm | - | - | - |
| 1787899803 | 19.44° C | 76% | 1023.7 hPa | 0 mm | - | - | - |
| 1787899503 | 20° C | 75% | 1023.6 hPa | 0 mm | - | - | - |
| 1787899203 | 20° C | 75% | 1023.5 hPa | 0 mm | - | - | - |
| 1787898903 | 20° C | 74% | 1023.6 hPa | 0 mm | - | - | - |
| 1787898603 | 20° C | 74% | 1023.6 hPa | 0 mm | - | - | - |
| 1787898303 | 20° C | 73% | 1023.6 hPa | 0 mm | - | - | - |
| 1787898003 | 20° C | 73% | 1023.6 hPa | 0 mm | - | - | - |
| 1787897703 | 20° C | 73% | 1023.6 hPa | 0 mm | - | - | - |
| 1787897403 | 20° C | 73% | 1023.5 hPa | 0 mm | - | - | - |
| 1787897103 | 20° C | 73% | 1023.5 hPa | 0 mm | - | - | - |
| 1787896803 | 19.44° C | 74% | 1023.6 hPa | 0 mm | - | - | - |
| 1787896503 | 19.44° C | 76% | 1023.5 hPa | 0 mm | - | - | - |
* Rain latest hour (hover to see other rain measurements)
** Current wind speed in m/s (hover to see current wind gust speed)